Location: Bletchingley
(51.2333°N, 0.1000°W)
Time: 15:33:11
(UTC+00:00)

Cosmos 2266 Rocket - Pass Details

Date: 25 January 2021
Orbit: 934 x 1008 km, 82.9° (Epoch: 05 March)

Event Time Altitude Azimuth Distance (km) Brightness Sun altitude
Rises 19:39:25 0° 181° (S) 3,682 7.0 -28.0°
Reaches altitude 10° 19:41:56 10° 180° (S) 2,728 6.3 -28.4°
Enters shadow 19:44:14 24° 177° (S) 1,896 5.4 -28.7°
Exits shadow 19:55:00 - 12° (NNE) 2,955 6.5 -30.4°
Sets 19:56:48 0° 12° (NNE) 3,635 7.0 -30.7°
